EW1296 Weather Reports


time (UTC)temp
F
wind
direction
speed
knots
gust
knots
rain 1hr
in
rain 24hr
in
rain mn
in
humidity
%
barometer
mb
20260510065057 53 0.0 0.9 0.00 0.18 0.01 94 1011.2
20260510064539 53 0.0 0.9 0.01 0.18 0.01 94 1011.2
20260510064017 53 0.0 0.0 0.01 0.18 0.01 94 1011.1
20260510063517 53 0.0 0.9 0.01 0.18 0.01 94 1011.0
20260510063017 53 0.0 0.9 0.01 0.18 0.01 94 1011.0
20260510062516 53 0.0 0.9 0.01 0.18 0.01 94 1011.0
20260510062017 53 0.0 1.7 0.01 0.18 0.01 94 1011.1
20260510061516 53 0.0 0.9 0.01 0.18 0.01 94 1011.1
20260510061036 53 0.0 1.7 0.01 0.18 0.01 94 1011.1
20260510060518 54 0.0 0.9 0.01 0.18 0.01 94 1011.2
20260510060017 54 0.0 2.6 0.01 0.18 0.01 94 1011.2
20260510055538 54 0.0 1.7 0.01 0.18 0.01 94 1011.2
20260510055016 54 0.0 1.7 0.01 0.18 0.01 94 1011.3
20260510054517 54 0.0 0.0 0.00 0.17 0.00 94 1011.2
20260510054017 54 0.0 0.9 0.00 0.17 0.00 94 1011.2
20260510053516 54 0.0 0.9 0.00 0.17 0.00 94 1011.2
20260510053016 53 0.0 0.0 0.00 0.17 0.00 94 1011.3
20260510052517 54 0.0 1.7 0.00 0.17 0.00 94 1011.2
20260510052016 54 0.0 0.9 0.00 0.17 0.00 94 1011.2
20260510051516 54 0.0 0.9 0.00 0.17 0.00 94 1011.3
20260510051036 54 0.0 1.7 0.00 0.17 0.00 94 1011.3
20260510050516 54 0.0 0.9 0.00 0.17 0.00 94 1011.4
20260510050038 54 0.0 0.9 0.00 0.17 0.00 93 1011.4
20260510045516 54 0.0 0.0 0.00 0.17 0.00 93 1011.4
20260510045037 54 0.0 0.0 0.00 0.17 0.00 93 1011.5
20260510044517 54 0.0 0.0 0.00 0.17 0.00 93 1011.6
20260510044016 54 0.0 0.0 0.00 0.17 0.00 93 1011.6
20260510043516 54 0.0 0.0 0.00 0.17 0.00 93 1011.6
20260510043017 54 0.0 0.9 0.00 0.17 0.00 93 1011.6
20260510042518 54 0.0 0.0 0.00 0.17 0.00 93 1011.5
20260510042016 54 0.0 0.9 0.00 0.17 0.00 93 1011.4
20260510041517 54 0.0 1.7 0.00 0.17 0.00 93 1011.4
20260510041016 54 0.0 1.7 0.00 0.17 0.00 93 1011.4
20260510040517 54 0.0 0.9 0.00 0.17 0.00 93 1011.3
20260510040017 54 0.0 1.7 0.00 0.17 0.17 93 1011.3
20260510035518 54 0.0 2.6 0.00 0.17 0.17 92 1011.3
20260510035017 55 0.0 1.7 0.00 0.17 0.17 93 1011.2
20260510034517 55 0.0 0.9 0.00 0.17 0.17 93 1011.2
20260510034017 54 0.0 0.9 0.00 0.17 0.17 93 1011.2
20260510033518 54 0.0 1.7 0.00 0.17 0.17 93 1011.1
20260510033018 54 0.0 0.9 0.00 0.17 0.17 92 1011.0
20260510032517 55 0.0 1.7 0.00 0.17 0.17 92 1011.1
20260510032018 55 0.0 0.9 0.00 0.17 0.17 92 1011.2
20260510031517 55 0.0 1.7 0.00 0.17 0.17 92 1011.2
20260510031017 55 113 0.9 2.6 0.00 0.17 0.17 92 1011.2
20260510030517 55 113 1.7 3.5 0.00 0.17 0.17 92 1011.1
20260510030039 55 135 0.9 3.5 0.00 0.17 0.17 92 1011.1
20260510025537 55 0.0 1.7 0.00 0.17 0.17 92 1011.1
20260510025018 55 0.0 2.6 0.00 0.17 0.17 92 1011.1
20260510024617 55 0.0 0.0 0.00 0.17 0.17 92 1011.1
20260510024017 56 0.0 0.9 0.00 0.17 0.17 92 1011.1
20260510023518 56 0.0 0.9 0.00 0.17 0.17 92 1011.1
20260510023037 56 0.0 0.9 0.00 0.17 0.17 92 1011.3
20260510022517 56 0.0 1.7 0.00 0.17 0.17 92 1011.2
20260510022037 56 135 0.9 2.6 0.00 0.17 0.17 92 1011.2
20260510021517 56 0.0 1.7 0.00 0.17 0.17 91 1011.2
20260510021016 56 135 0.9 2.6 0.00 0.17 0.17 91 1011.2
20260510020538 56 0.0 0.9 0.00 0.17 0.17 91 1011.2
20260510020017 56 0.0 1.7 0.00 0.17 0.17 91 1011.1
20260510015517 56 0.0 0.9 0.00 0.17 0.17 91 1011.1
20260510015017 56 0.0 1.7 0.00 0.17 0.17 91 1011.1
20260510014558 56 0.0 0.9 0.00 0.17 0.17 91 1011.0
20260510014017 56 0.0 1.7 0.00 0.17 0.17 91 1011.0
20260510013517 56 0.0 0.9 0.00 0.17 0.17 91 1011.0
20260510013017 56 0.0 0.9 0.00 0.17 0.17 91 1011.0
20260510012518 56 0.0 0.9 0.00 0.17 0.17 91 1011.0
20260510012018 56 0.0 1.7 0.00 0.17 0.17 91 1010.9
20260510011517 56 113 0.9 1.7 0.00 0.17 0.17 91 1010.9
20260510011017 56 113 0.9 2.6 0.00 0.17 0.17 91 1010.9
20260510010517 57 0.0 1.7 0.00 0.17 0.17 91 1010.8
20260510010016 57 0.0 1.7 0.00 0.17 0.17 91 1010.7
20260510005517 57 113 0.9 3.5 0.00 0.17 0.17 90 1010.7
20260510005017 57 90 0.9 1.7 0.00 0.17 0.17 90 1010.6
20260510004517 57 0.0 2.6 0.00 0.17 0.17 90 1010.6
20260510004016 57 0.0 2.6 0.00 0.17 0.17 90 1010.6
20260510003518 57 0.0 1.7 0.00 0.17 0.17 90 1010.6
20260510003038 57 0.0 1.7 0.00 0.17 0.17 90 1010.6
20260510002517 57 0.0 0.9 0.00 0.17 0.17 90 1010.7
20260510002017 57 0.0 2.6 0.00 0.17 0.17 90 1010.6
20260510001518 57 113 0.9 2.6 0.00 0.17 0.17 90 1010.5
20260510001016 57 0.0 1.7 0.00 0.17 0.17 90 1010.5
20260510000517 57 0.0 1.7 0.00 0.17 0.17 90 1010.4
20260510000016 58 0.0 1.7 0.00 0.17 0.17 90 1010.5
20260509235538 58 0.0 0.9 0.00 0.17 0.17 90 1010.4
20260509235017 58 0.0 0.9 0.00 0.17 0.17 90 1010.4
20260509234538 58 0.0 0.9 0.00 0.17 0.17 89 1010.3
20260509234016 58 113 0.9 2.6 0.00 0.17 0.17 89 1010.2
20260509233516 58 113 1.7 4.3 0.01 0.17 0.17 89 1010.1
20260509233017 58 68 0.9 3.5 0.02 0.17 0.17 89 1010.1
20260509232516 59 68 0.9 1.7 0.04 0.17 0.17 89 1010.2
20260509232057 59 68 0.9 2.6 0.05 0.17 0.17 89 1010.2
20260509231516 59 113 0.9 3.5 0.07 0.17 0.17 89 1010.2
20260509231016 59 90 1.7 3.5 0.07 0.17 0.17 89 1010.3
20260509230517 59 113 1.7 5.2 0.08 0.17 0.17 89 1010.3
20260509230017 59 113 1.7 4.3 0.09 0.17 0.17 88 1010.3
20260509225718 59 113 0.9 3.5 0.11 0.17 0.17 88 1010.5
20260509225016 59 0.0 1.7 0.13 0.17 0.17 88 1010.6
20260509224708 59 0.0 2.6 0.13 0.17 0.17 87 1010.8
20260509223017 59 68 0.9 3.5 0.11 0.15 0.15 85 1010.7
20260509222517 59 0.0 1.7 0.09 0.13 0.13 85 1011.1
20260509222016 59 0.0 1.7 0.08 0.12 0.12 84 1011.4
20260509221536 59 0.0 0.9 0.06 0.10 0.10 84 1011.3
20260509221016 59 0.0 0.0 0.06 0.10 0.10 83 1011.0
20260509220516 60 0.0 1.7 0.05 0.09 0.09 83 1010.9
20260509220016 60 23 0.9 2.6 0.04 0.08 0.08 82 1010.8
20260509215516 60 315 2.6 7.8 0.02 0.06 0.06 82 1011.4
20260509215016 60 315 1.7 5.2 0.00 0.04 0.04 82 1011.5
20260509214517 60 0.0 1.7 0.00 0.04 0.04 82 1010.8
20260509214017 60 23 0.9 3.5 0.00 0.04 0.04 82 1010.6
20260509213517 60 68 0.9 5.2 0.00 0.04 0.04 82 1010.5
20260509213018 60 68 0.9 3.5 0.00 0.04 0.04 82 1010.5
20260509212516 60 0 0.9 3.5 0.00 0.04 0.04 82 1011.0
20260509212036 60 45 0.9 2.6 0.00 0.04 0.04 82 1011.0
20260509211516 60 0 0.9 3.5 0.00 0.04 0.04 83 1011.0
20260509211016 60 23 0.9 3.5 0.00 0.04 0.04 82 1010.9
20260509210518 60 45 0.9 5.2 0.00 0.04 0.04 82 1010.8
20260509210017 59 45 1.7 4.3 0.00 0.04 0.04 82 1010.7
20260509205516 59 338 0.9 3.5 0.00 0.04 0.04 82 1010.8
20260509205017 59 0 0.9 2.6 0.00 0.04 0.04 82 1011.0
20260509204517 59 0 1.7 7.0 0.00 0.04 0.04 82 1011.1
20260509204036 60 338 1.7 5.2 0.00 0.04 0.04 82 1011.0
20260509203536 60 293 1.7 6.1 0.00 0.04 0.04 82 1011.0
20260509203016 60 338 1.7 7.0 0.00 0.04 0.04 82 1011.0
20260509202516 60 0 1.7 5.2 0.00 0.04 0.04 83 1010.9
20260509202016 60 338 0.9 4.3 0.00 0.04 0.04 83 1010.9
20260509201516 60 338 1.7 4.3 0.00 0.04 0.04 83 1011.0
20260509201016 61 293 0.9 3.5 0.00 0.04 0.04 83 1011.1
20260509200516 61 0.0 0.0 0.00 0.04 0.04 84 1011.0
20260509200016 61 0.0 0.9 0.00 0.04 0.04 84 1011.0
20260509195517 61 0.0 0.0 0.00 0.04 0.04 84 1011.2
20260509195016 61 225 0.9 2.6 0.00 0.04 0.04 84 1011.4
20260509194516 61 0.0 2.6 0.00 0.04 0.04 84 1011.4
20260509194016 61 0.0 1.7 0.01 0.04 0.04 84 1011.3
20260509193516 61 0.0 2.6 0.02 0.04 0.04 84 1011.2
20260509193016 61 135 0.9 3.5 0.02 0.04 0.04 84 1011.1
20260509192516 61 135 0.9 3.5 0.02 0.04 0.04 85 1011.1
20260509192016 61 113 0.9 2.6 0.02 0.04 0.04 85 1011.0
20260509191516 61 0.0 3.5 0.03 0.04 0.04 84 1010.9
20260509191016 61 135 0.9 2.6 0.03 0.04 0.04 84 1010.9
20260509190536 61 113 0.9 3.5 0.03 0.04 0.04 84 1010.9
20260509190016 61 113 1.7 4.3 0.03 0.04 0.04 83 1010.9
20260509185516 61 113 0.9 2.6 0.03 0.04 0.04 83 1011.1
20260509185016 61 0.0 1.7 0.03 0.04 0.04 82 1011.0
20260509184516 61 338 0.9 2.6 0.03 0.04 0.04 82 1011.1
20260509184016 61 248 0.9 3.5 0.02 0.03 0.03 81 1012.0
20260509183537 61 270 1.7 4.3 0.01 0.02 0.02 81 1012.0
20260509183037 61 248 1.7 8.7 0.01 0.02 0.02 80 1011.6
20260509182516 62 135 0.9 4.3 0.01 0.02 0.02 80 1011.2
20260509182037 62 135 1.7 7.0 0.01 0.02 0.02 80 1011.5
20260509181516 62 0.0 1.7 0.00 0.01 0.01 81 1011.5
20260509181018 62 0.0 0.9 0.00 0.01 0.01 80 1011.1
20260509180517 62 0.0 0.0 0.00 0.01 0.01 81 1010.8
20260509180016 62 0.0 1.7 0.01 0.01 0.01 81 1010.6
20260509175516 62 0.0 2.6 0.01 0.01 0.01 81 1010.6
20260509175016 62 113 0.9 4.3 0.01 0.01 0.01 81 1010.9
20260509174516 62 113 2.6 9.6 0.01 0.01 0.01 81 1010.8
20260509174038 62 113 0.9 2.6 0.01 0.01 0.01 82 1011.0
20260509173537 62 135 0.9 3.5 0.01 0.01 0.01 82 1011.0
20260509173016 62 135 0.9 3.5 0.01 0.01 0.01 81 1011.0
20260509172516 62 135 0.9 3.5 0.01 0.01 0.01 81 1010.9
20260509172017 62 113 2.6 5.2 0.01 0.01 0.01 80 1010.9
20260509171537 62 113 1.7 4.3 0.01 0.01 0.01 79 1010.9
20260509171017 62 113 3.5 7.0 0.01 0.01 0.01 77 1011.1
20260509170516 62 135 2.6 7.0 0.01 0.01 0.01 75 1011.2
20260509170016 63 113 2.6 7.0 0.00 0.00 0.00 73 1011.1
20260509165517 64 113 4.3 9.6 0.00 0.00 0.00 71 1011.2
20260509165016 65 113 2.6 8.7 0.00 0.00 0.00 69 1011.2
20260509164516 66 113 1.7 7.0 0.00 0.00 0.00 67 1011.0
20260509164016 66 135 1.7 3.5 0.00 0.00 0.00 66 1011.1
20260509163516 66 135 0.9 2.6 0.00 0.00 0.00 64 1011.2
20260509163017 66 113 0.9 2.6 0.00 0.00 0.00 64 1011.2
20260509162516 66 113 1.7 5.2 0.00 0.00 0.00 63 1011.3
20260509162036 65 113 1.7 3.5 0.00 0.00 0.00 64 1011.4
20260509161516 65 113 2.6 5.2 0.00 0.00 0.00 64 1011.5
20260509161016 65 113 2.6 6.1 0.00 0.00 0.00 64 1011.6
20260509160537 64 113 1.7 7.0 0.00 0.00 0.00 64 1011.7
20260509160016 64 113 2.6 7.8 0.00 0.00 0.00 64 1011.8
20260509155517 64 113 1.7 5.2 0.00 0.00 0.00 64 1011.9
20260509155015 64 113 0.9 3.5 0.00 0.00 0.00 64 1012.0
20260509154516 64 0.0 2.6 0.00 0.00 0.00 65 1012.0
20260509154016 64 135 0.9 3.5 0.00 0.00 0.00 64 1012.1
20260509153516 64 113 0.9 2.6 0.00 0.00 0.00 63 1012.2
20260509153016 65 113 1.7 3.5 0.00 0.00 0.00 63 1012.3
20260509152516 65 113 0.9 5.2 0.00 0.00 0.00 63 1012.2
20260509152016 65 135 0.9 3.5 0.00 0.00 0.00 63 1012.2
20260509151516 64 248 0.9 2.6 0.00 0.00 0.00 64 1012.2
20260509151017 64 225 1.7 4.3 0.00 0.00 0.00 63 1012.2
20260509150516 65 225 2.6 6.1 0.00 0.00 0.00 63 1012.2
20260509150016 65 225 1.7 4.3 0.00 0.00 0.00 63 1012.3
20260509145516 65 225 0.9 4.3 0.00 0.00 0.00 63 1012.3
20260509145016 64 135 0.9 2.6 0.00 0.00 0.00 64 1012.3
20260509144537 64 225 0.9 2.6 0.00 0.00 0.00 64 1012.2
20260509144016 64 225 1.7 4.3 0.00 0.00 0.00 64 1012.3
20260509143516 64 135 1.7 6.1 0.00 0.00 0.00 64 1012.2
20260509143015 63 225 1.7 7.0 0.00 0.00 0.00 65 1012.3
20260509142516 63 225 1.7 6.1 0.00 0.00 0.00 64 1012.3
20260509142036 63 225 1.7 4.3 0.00 0.00 0.00 65 1012.2
20260509141515 62 225 0.9 3.5 0.00 0.00 0.00 66 1012.3
20260509141016 62 225 1.7 4.3 0.00 0.00 0.00 66 1012.3
20260509140516 62 0.0 3.5 0.00 0.00 0.00 67 1012.3
20260509140016 61 203 0.9 3.5 0.00 0.00 0.00 68 1012.3
20260509135517 61 203 0.9 2.6 0.00 0.00 0.00 68 1012.4
20260509135016 61 135 0.9 2.6 0.00 0.00 0.00 69 1012.3
20260509134516 61 225 0.9 4.3 0.00 0.00 0.00 68 1012.2
20260509134016 61 158 0.9 4.3 0.00 0.00 0.00 68 1012.4
20260509133516 61 225 0.9 3.5 0.00 0.00 0.00 68 1012.4
20260509133016 61 248 1.7 5.2 0.00 0.00 0.00 68 1012.3
20260509132515 61 158 0.9 2.6 0.00 0.00 0.00 68 1012.5
20260509132015 61 158 0.9 4.3 0.00 0.00 0.00 68 1012.5
20260509131515 61 158 0.9 3.5 0.00 0.00 0.00 69 1012.3
20260509131016 60 248 0.9 3.5 0.00 0.00 0.00 70 1012.5
20260509130517 60 113 0.9 4.3 0.00 0.00 0.00 70 1012.4
20260509130016 60 225 0.9 5.2 0.00 0.00 0.00 70 1012.6
20260509125515 60 113 0.9 2.6 0.00 0.00 0.00 70 1012.6
20260509125016 59 135 0.9 3.5 0.00 0.00 0.00 71 1012.8
20260509124515 59 225 0.9 3.5 0.00 0.00 0.00 71 1012.9
20260509124037 59 0.0 3.5 0.00 0.00 0.00 71 1012.9
20260509123515 59 0.0 1.7 0.00 0.00 0.00 71 1012.8
20260509123015 59 158 0.9 2.6 0.00 0.00 0.00 71 1012.9
20260509122517 59 0.0 2.6 0.00 0.00 0.00 72 1012.8
20260509122017 59 113 0.9 3.5 0.00 0.00 0.00 72 1012.8
20260509121516 58 135 0.9 2.6 0.00 0.00 0.00 72 1012.8
20260509121015 58 0.0 2.6 0.00 0.00 0.00 72 1012.8
20260509120537 58 135 0.9 2.6 0.00 0.00 0.00 72 1012.6
20260509120015 58 135 0.9 2.6 0.00 0.00 0.00 72 1012.8
20260509115515 58 0.0 1.7 0.00 0.00 0.00 72 1012.9
20260509115015 57 0.0 1.7 0.00 0.00 0.00 72 1012.9
20260509114515 57 0.0 1.7 0.00 0.00 0.00 72 1012.9
20260509114015 57 0.0 2.6 0.00 0.00 0.00 72 1012.9
20260509113516 57 0.0 4.3 0.00 0.00 0.00 72 1012.9
20260509113139 57 0.0 1.7 0.00 0.00 0.00 73 1012.8
20260509112515 57 203 0.9 2.6 0.00 0.00 0.00 73 1012.9
20260509112037 57 203 0.9 7.0 0.00 0.00 0.00 73 1012.8
20260509111536 57 225 0.9 7.0 0.00 0.00 0.00 73 1012.7
20260509111017 57 0.0 4.3 0.00 0.00 0.00 73 1012.8
20260509110515 57 203 0.9 4.3 0.00 0.00 0.00 73 1012.8
20260509110016 57 203 0.9 4.3 0.00 0.00 0.00 73 1012.8
20260509105515 57 225 1.7 5.2 0.00 0.00 0.00 73 1012.8
20260509105037 57 225 1.7 5.2 0.00 0.00 0.00 73 1012.7
20260509104517 57 225 0.9 4.3 0.00 0.00 0.00 73 1012.6
20260509104035 57 225 0.9 3.5 0.00 0.00 0.00 73 1012.6
20260509103515 57 203 0.9 2.6 0.00 0.00 0.00 72 1012.6
20260509103015 57 203 0.9 7.0 0.00 0.00 0.00 72 1012.6
20260509102518 57 225 0.9 4.3 0.00 0.00 0.00 72 1012.5
20260509102017 57 225 0.9 4.3 0.00 0.00 0.00 72 1012.4
20260509101517 57 158 0.9 3.5 0.00 0.00 0.00 71 1012.5
20260509101017 57 0.0 0.0 0.00 0.00 0.00 71 1012.4
20260509100517 57 0.0 0.9 0.00 0.00 0.00 71 1012.4
20260509100017 57 0.0 0.9 0.00 0.00 0.00 71 1012.3
20260509095537 57 0.0 3.5 0.00 0.00 0.00 71 1012.4
20260509095017 57 0.0 0.0 0.00 0.00 0.00 72 1012.4
20260509094517 57 0.0 3.5 0.00 0.00 0.00 72 1012.4
20260509094017 57 0.0 1.7 0.00 0.00 0.00 73 1012.4
20260509093517 57 113 0.9 1.7 0.00 0.00 0.00 73 1012.3
20260509093019 57 0.0 1.7 0.00 0.00 0.00 73 1012.2
20260509092518 57 0.0 1.7 0.00 0.00 0.00 72 1012.2
20260509092017 57 0.0 0.0 0.00 0.00 0.00 72 1012.2
20260509091538 57 0.0 0.0 0.00 0.00 0.00 72 1012.3
20260509091017 57 0.0 1.7 0.00 0.00 0.00 72 1012.4
20260509090517 57 0.0 1.7 0.00 0.00 0.00 72 1012.4
20260509090015 57 0.0 2.6 0.00 0.00 0.00 71 1012.3
20260509085518 57 113 0.9 2.6 0.00 0.00 0.00 71 1012.3
20260509085017 57 0.0 1.7 0.00 0.00 0.00 70 1012.4
20260509084537 57 135 0.9 2.6 0.00 0.00 0.00 69 1012.4
20260509084017 57 0.0 1.7 0.00 0.00 0.00 69 1012.3
20260509083518 57 0.0 0.0 0.00 0.00 0.00 69 1012.4
20260509083037 57 0.0 0.0 0.00 0.00 0.00 68 1012.4
20260509082517 57 0.0 0.0 0.00 0.00 0.00 68 1012.5
20260509082038 57 0.0 0.0 0.00 0.00 0.00 68 1012.4
20260509081518 57 0.0 0.0 0.00 0.00 0.00 68 1012.5
20260509081037 57 0.0 0.0 0.00 0.00 0.00 68 1012.5
20260509080517 57 0.0 0.0 0.00 0.00 0.00 68 1012.4
20260509080037 57 0.0 0.0 0.00 0.00 0.00 68 1012.3
20260509075518 57 0.0 0.0 0.00 0.00 0.00 68 1012.3
20260509075017 57 0.0 0.0 0.00 0.00 0.00 69 1012.4
20260509074518 57 0.0 0.0 0.00 0.00 0.00 69 1012.4
20260509074017 57 0.0 0.0 0.00 0.00 0.00 69 1012.5
20260509073518 57 0.0 1.7 0.00 0.00 0.00 69 1012.6
20260509073017 57 0.0 0.9 0.00 0.00 0.00 70 1012.6
20260509072518 57 0.0 1.7 0.00 0.00 0.00 70 1012.6
20260509072017 57 0.0 0.9 0.00 0.00 0.00 71 1012.6
20260509071518 57 0.0 1.7 0.00 0.00 0.00 71 1012.5
20260509071018 57 0.0 0.0 0.00 0.00 0.00 71 1012.5
20260509070517 57 0.0 0.9 0.00 0.00 0.00 71 1012.5
20260509070017 57 0.0 1.7 0.00 0.00 0.00 72 1012.6
20260509065538 57 0.0 1.7 0.00 0.00 0.00 72 1012.6